Location: Aalen
(48.8330°N, 10.1000°E)
Time: 20:30:23
(UTC+02:00)

S-56A Canister/Altair - Pass Details

Date: 06 August 2021
Orbit: 632 x 2500 km, 38.9° (Epoch: 19 September)

Event Time Altitude Azimuth Distance (km) Brightness Sun altitude
Rises 20:34:46 0° 280° (W) 6,050 14.2 1.5°
Reaches altitude 10° 20:39:20 10° 271° (W) 5,134 13.1 0.8°
Maximum altitude 20:51:10 30° 219° (SW) 3,715 11.2 -1.0°
Drops below altitude 10° 21:02:03 10° 166° (SSE) 4,679 11.1 -2.6°
Sets 21:06:01 0° 156° (SSE) 5,449 11.4 -3.1°
